Regional Weather Roundup
Issued by NWS

Home | Current Version | Previous Version | Graphics & Text | Print | Product List | Glossary On
Versions: 1 2 3 4 5 6 7 8 9 10 11 12 13 14 15 16 17 18 19 20 21 22 23 24 25 26 27
000
ASUS45 KBOU 242106
RWRCO

WEATHER ROUNDUP FOR COLORADO
NATIONAL WEATHER SERVICE DENVER/BOULDER CO
300 PM MDT THU APR 24 2014

NOTE: "FAIR" INDICATES FEW OR NO CLOUDS BELOW 12000 FEET WITH NO
SIGNIFICANT WEATHER AND/OR OBSTRUCTIONS TO VISIBILITY.

COZ001>005-013-030-031-242200-
...NORTHWEST COLORADO...

CITY           SKY/WX    TMP DP  RH WIND       PRES   REMARKS
CRAIG          PTSUNNY   55  18  23 W16G22    30.01F
HAYDEN         SUNNY     50  18  27 CALM      30.05F
MEEKER         SUNNY     60  13  15 W16G24    30.02F
MOUNT WERNER   MOSUNNY   36  10  35 W13G23    30.13F
STEAMBOAT SPGS MOSUNNY   52  11  18 W6        30.04F
WALDEN         PTSUNNY   48  12  23 SW24G31   30.01F
$$

COZ006>008-011-242200-
...WEST CENTRAL VALLEYS...

CITY           SKY/WX    TMP DP  RH WIND       PRES   REMARKS
GRAND JUNCTION SUNNY     60  15  17 VRB3      30.05F
MONTROSE       SUNNY     61  11  14 N12       30.06F
EAGLE          MOSUNNY   57  12  17 SW16G25   30.03F
RIFLE          SUNNY     61   9  12 W23       30.02F
DELTA          NOT AVBL
NUCLA          NOT AVBL
$$

COZ017>023-064>068-242200-
...SOUTHWEST COLORADO...

CITY           SKY/WX    TMP DP  RH WIND       PRES   REMARKS
DURANGO        SUNNY     59   1   9 SW13      30.09F
CORTEZ         SUNNY     63  10  12 S8        30.09F
PAGOSA SPRINGS SUNNY     56   0  10 W6        30.12F
TELLURIDE      SUNNY     52   7  16 W13G20    30.14S
WOLF CREEK PAS PTSUNNY   32  12  43 SW13G24   30.24S WCI  22
$$

COZ009-010-012-014-032>034-037-058>063-242200-
...CENTRAL COLORADO...

CITY           SKY/WX    TMP DP  RH WIND       PRES   REMARKS
ASPEN          MOSUNNY   55  12  18 NW7       30.04F
BUENA VISTA    SUNNY     60   6  12 SW17G28   30.00F
COPPER MTN     MOSUNNY   37   9  30 W37G44    30.14F HAZE
BERTHOUD PASS  CLOUDY    30  21  69 NW23G31   30.15S WCI  17
COTTONWOOD PAS SUNNY     54   3  13 W5G26     30.08S
GUNNISON       SUNNY     57  12  17 SW21G26   30.08F
KREMMLING      MOSUNNY   55   9  15 SW9G18    30.04F
LEADVILLE      MOSUNNY   43  10  26 N10       30.10S
MONARCH PASS   SUNNY     36   9  32 W41G49    30.26F
SALIDA         SUNNY    N/A N/A N/A SW18G26   30.07S
SUNLIGHT       MOSUNNY   43  19  39 CALM      30.18F
WILKERSON PASS SUNNY     45   7  21 W13G30    30.13F
$$

COZ069>075-242200-
...SAN LUIS VALLEY/SANGRE DE CRISTO MOUNTAINS...

CITY           SKY/WX    TMP DP  RH WIND       PRES   REMARKS
ALAMOSA        SUNNY     59   8  13 SE8       30.03F
LA VETA PASS   MOSUNNY   46  12  25 SW14G25   30.12F
SAGUACHE       SUNNY     63   7  11 NW21G32   30.03F
$$

COZ035-036-038>040-242200-
...NORTHERN COLORADO FRONT RANGE...

CITY           SKY/WX    TMP DP  RH WIND       PRES   REMARKS
DENVER INTL AP MOSUNNY   60  23  24 E10G16    29.91F
DMNS CITY PARK   N/A     62  19  19 E12       29.89F
AURORA         MOSUNNY   61  25  25 E9        29.92F
FRONT RANGE AP NOT AVBL
ERIE MUNI ARPT MOSUNNY   63  21  19 E7G16     29.89F
BOULDER MUN AP MOSUNNY   63  23  22 E8        29.88F
CENTENNIAL     MOSUNNY   59  25  27 E12       29.91F
BROOMFIELD     MOSUNNY   63  19  19 E12       29.91
FORT COLLINS   PTSUNNY   61  25  25 SE5       29.91F
LONGMONT       NOT AVBL
$$

COZ041-046-047-076>085-087-088-242200-
...PIKES PEAK/PALMER DIVIDE AND SOUTHERN FOOTHILLS...

CITY           SKY/WX    TMP DP  RH WIND       PRES   REMARKS
COLO. SPRINGS  MOSUNNY   62  14  15 S21G30    29.94F
A. F. ACADEMY  SUNNY     59  18  19 S13G23    29.94S
ELLICOTT       NOT AVBL
FALCON         SUNNY     59  17  19 S14       29.98S
FORT CARSON    SUNNY     63  18  17 SE18G25   29.91F
LIMON          SUNNY     58  14  17 VRB6      29.94F
MONUMENT HILL  MOSUNNY   57  27  30 S13       29.95F
TRINIDAD       PTSUNNY   65  22  19 CALM      29.95F
$$

COZ042>045-048>051-090-091-242200-
...NORTHEAST COLORADO...

CITY           SKY/WX    TMP DP  RH WIND       PRES   REMARKS
GREELEY ARPT   PTSUNNY   64  19  17 S8        29.91F
AKRON          SUNNY     59  17  19 SW10G16   29.92F
BURLINGTON     SUNNY     64  12  13 N10G26    29.93F
WRAY           SUNNY     69  13  11 W12G21    29.89F
STERLING       NOT AVBL
HOLYOKE        NOT AVBL
FORT MORGAN    NOT AVBL
$$

COZ086-089-092>099-242200-
...SOUTHEAST COLORADO...

CITY           SKY/WX    TMP DP  RH WIND       PRES   REMARKS
PUEBLO         MOSUNNY   66  21  18 SE18      29.90F
LA JUNTA       MOSUNNY   64  17  16 MISG      29.95F
LAMAR          SUNNY     66  16  14 W8        29.94F
SPRINGFIELD      N/A     63  19  18 VRB6      29.97F
$$



USA.gov is the U.S. government's official web portal to all federal, state and local government web resources and services.